Location: Alafon
(8.4500°N, 4.2333°E)
Time: 17:18:28
(UTC+00:00)

Transit 2A - Pass Details

Date: 09 August 2021
Orbit: 595 x 964 km, 66.7° (Epoch: 18 September)

Event Time Altitude Azimuth Distance (km) Brightness Sun altitude
Rises 14:40:02 0° 325° (NW) 3,525 9.9 47.5°
Reaches altitude 10° 14:42:39 10° 318° (NW) 2,622 9.5 46.9°
Maximum altitude 14:48:19 39° 251° (WSW) 1,402 8.8 45.5°
Drops below altitude 10° 14:54:10 10° 184° (S) 2,692 8.9 44.1°
Sets 14:56:54 0° 177° (S) 3,629 9.4 43.5°
